Spencer, IA

3:12 AM CDT on July 24, 2017 (GMT -0500)
Spencer Municipal

Weather History for KSPW - March, 2013

Change the Weather History Date:

Thursday, March 21, 2013

  Actual Average Record
Temperature  
Mean Temperature 18 °F -  
Max Temperature 30 °F 43 °F 70 °F (2009)
Min Temperature 8 °F 25 °F 7 °F (1974)
Degree Days  
Heating Degree Days 47    
Moisture  
Dew Point 9 °F    
Average Humidity 66    
Maximum Humidity 81    
Minimum Humidity 51    
Precipitation  
Precipitation 0.00 in - - ()
Sea Level Pressure  
Sea Level Pressure 30.11 in    
Wind  
Wind Speed 4 mph (ENE)    
Max Wind Speed 10 mph    
Max Gust Speed -    
Visibility 10 miles    
Events      
Averages and records for this station are not official NWS values.
T = Trace of Precipitation, MM = Missing Value Source: NWS Daily Summary

Daily Weather History Graph

Daily Weather History Graph

Search for Another Location

Airport or City:

Trip Planner

Search our weather history database for the weather conditions in past years. The results will help you decide how hot, cold, wet, or windy it might be!

Date:

Astronomy

Mar. 21, 2013 Rise Set
Actual Time 7:21 AM CDT 7:34 PM CDT
Civil Twilight 6:53 AM CDT 8:03 PM CDT
Nautical Twilight 6:20 AM CDT 8:36 PM CDT
Astronomical Twilight 5:46 AM CDT 9:10 PM CDT
Moon 1:57 PM CDT (3/21) 3:52 AM CDT (3/21)
Length of Visible Light 13h 09m
Length of Day
12h 12m
Waxing Gibbous, 69% of the Moon is Illuminated
Mar 21
Waxing Gibbous
Mar 27
Full
Apr 2
Last Quarter
Apr 10
New
Apr 18
First Quarter

Hourly Weather History & Observations

Time (CDT) Temp. Windchill Dew Point Humidity Pressure Visibility Wind Dir Wind Speed Gust Speed Precip Events Conditions
1:53 AM 12.0 °F 4.1 °F 3.9 °F 70% 30.18 in 10.0 mi NNW 4.6 mph - N/A   Clear
2:53 AM 10.9 °F 2.9 °F 3.9 °F 73% 30.17 in 10.0 mi NE 4.6 mph - N/A   Clear
3:53 AM 10.0 °F 3.6 °F 3.0 °F 73% 30.15 in 10.0 mi NE 3.5 mph - N/A   Clear
4:53 AM 10.0 °F - 3.0 °F 73% 30.14 in 10.0 mi Calm Calm - N/A   Clear
5:53 AM 9.0 °F 2.4 °F 3.0 °F 77% 30.14 in 10.0 mi NNE 3.5 mph - N/A   Clear
6:53 AM 8.1 °F - 1.9 °F 76% 30.15 in 10.0 mi Calm Calm - N/A   Clear
7:53 AM 9.0 °F - 3.9 °F 80% 30.15 in 10.0 mi Calm Calm - N/A   Clear
8:53 AM 12.0 °F 5.9 °F 3.9 °F 70% 30.14 in 10.0 mi East 3.5 mph - N/A   Clear
9:53 AM 15.1 °F - 5.0 °F 64% 30.12 in 10.0 mi Calm Calm - N/A   Clear
10:53 AM 19.0 °F 12.3 °F 7.0 °F 59% 30.12 in 10.0 mi Variable 4.6 mph - N/A   Clear
11:53 AM 21.9 °F 13.4 °F 8.1 °F 55% 30.12 in 10.0 mi ENE 6.9 mph - N/A   Clear
12:53 PM 23.0 °F 15.8 °F 8.1 °F 53% 30.10 in 10.0 mi Variable 5.8 mph - N/A   Clear
1:53 PM 26.1 °F 18.4 °F 10.0 °F 51% 30.08 in 10.0 mi ENE 6.9 mph - N/A   Clear
2:53 PM 27.0 °F 21.6 °F 12.0 °F 53% 30.06 in 10.0 mi East 4.6 mph - N/A   Clear
3:53 PM 28.0 °F 22.8 °F 12.9 °F 53% 30.04 in 10.0 mi SE 4.6 mph - N/A   Clear
4:53 PM 28.9 °F 20.4 °F 14.0 °F 54% 30.04 in 10.0 mi ESE 9.2 mph - N/A   Clear
5:53 PM 28.9 °F 20.4 °F 15.1 °F 56% 30.05 in 10.0 mi East 9.2 mph - N/A   Clear
6:53 PM 27.0 °F 17.3 °F 14.0 °F 58% 30.06 in 10.0 mi East 10.4 mph - N/A   Clear
7:53 PM 24.1 °F 13.7 °F 14.0 °F 65% 30.07 in 10.0 mi East 10.4 mph - N/A   Clear
8:53 PM 21.9 °F 13.4 °F 14.0 °F 72% 30.08 in 10.0 mi East 6.9 mph - N/A   Clear
9:53 PM 21.9 °F 13.4 °F 15.1 °F 75% 30.10 in 10.0 mi East 6.9 mph - N/A   Clear
10:53 PM 19.9 °F 12.1 °F 14.0 °F 78% 30.11 in 10.0 mi East 5.8 mph - N/A   Clear
11:53 PM 19.9 °F 13.4 °F 15.1 °F 81% 30.11 in 10.0 mi East 4.6 mph - N/A   Clear